Preview of NWS' New Version of Forecast
This preview is not operational and should not be used for support decisions.

Regional Weather Roundup (RWR)

Issued by National Weather Service (NWS)

                            
000
ASUS45 KBOI 181110
RWRID 

IDAHO REGIONAL WEATHER ROUNDUP
NATIONAL WEATHER SERVICE BOISE ID
400 AM MST MON FEB 18 2019

NOTE: "FAIR" INDICATES FEW OR NO CLOUDS BELOW 12000 FEET
WITH NO SIGNIFICANT WEATHER AND/OR OBSTRUCTIONS TO VISIBILITY

IDZ012-014-181200-
SOUTHWEST IDAHO

  
CITY           SKY/WX    TMP DP  RH WIND       PRES   REMARKS
BOISE          CLEAR     25  21  85 CALM      30.07R                  
CALDWELL       CLOUDY    29  22  75 W17       30.10S WCI  17          
MOUNTAIN HOME  CLEAR     25  25 100 NW8       30.05S WCI  16          
$$

IDZ016-017-181200-
SOUTHCENTRAL IDAHO

  
CITY           SKY/WX    TMP DP  RH WIND       PRES   REMARKS
BURLEY         CLOUDY    19  12  74 E3        29.98S                  
JEROME         CLOUDY    24  22  91 SE3       29.99F                  
TWIN FALLS     CLOUDY    22  20  92 SW5       29.98F WCI  16          
$$

IDZ019>023-181200-
SOUTHEAST IDAHO

  
CITY           SKY/WX    TMP DP  RH WIND       PRES   REMARKS
IDAHO FALLS    CLEAR     -1  -5  82 N6        29.95S WCI -13          
POCATELLO      CLOUDY    12   7  80 N9        29.97R WCI   0          
REXBURG        CLEAR      4  -3  73 NE6       29.94F WCI  -7          
$$

IDZ006-010-011-018-031-032-181200-
CENTRAL IDAHO MOUNTAINS

  
CITY           SKY/WX    TMP DP  RH WIND       PRES   REMARKS
MCCALL         CLOUDY    15  11  83 CALM      29.95S                  
HAILEY         CLEAR      9   3  78 NW10      29.96S WCI  -6          
STANLEY          N/A      6   1  80 E3        29.91F                  
SALMON         CLOUDY    17  10  74 E7        30.06S WCI   8          
CHALLIS        CLOUDY    14   8  77 CALM      29.96F                  
$$

IDZ002-004-006-007-026-181200-
NORTHERN IDAHO

  
CITY           SKY/WX    TMP DP  RH WIND       PRES   REMARKS
LEWISTON       CLOUDY    26  18  71 NW8       30.25R WCI  18          
LOWELL         NOT AVBL                                               
COEUR D'ALENE  CLEAR     10   2  69 N9        30.26S WCI  -3          
MULLAN PASS    PTCLDY     0  -5  79 E6        29.93F WCI -12          
$$